DEVIC EDXB-EDAZ

Flight info

Callsign DEVIC
Flight time 1h 17m
Altitude 7000
Route OSTOR L619 PITEN Z998 NISGA
Aircraft B36T/L-BDFGLORY/S

Departure

Time 2026-05-04 15:56
Airport Heide-Büsum Airport (EDXB)

Arrival

Time 2026-05-04 17:14
Airport Schönhagen Airfield (EDAZ)
Time Latitude Longitude Altitude Speed Heading
2026-05-04 14:58 54.15373 8.89576 10 ft 0 kts 196°
2026-05-04 15:52 54.15357 8.89611 10 ft 6 kts 104°
2026-05-04 15:53 54.15367 8.89674 10 ft 6 kts 21°
2026-05-04 15:53 54.15377 8.89753 10 ft 12 kts 110°
2026-05-04 15:53 54.15344 8.89919 10 ft 19 kts 109°
2026-05-04 15:53 54.15291 8.90178 10 ft 27 kts 110°
2026-05-04 15:54 54.15243 8.90416 10 ft 21 kts 109°
2026-05-04 15:54 54.15203 8.90608 10 ft 12 kts 108°
2026-05-04 15:54 54.15226 8.90682 9 ft 11 kts 16°
2026-05-04 15:54 54.15238 8.90677 10 ft 0 kts 292°
2026-05-04 15:55 54.15344 8.90151 39 ft 91 kts 292°
2026-05-04 15:56 54.15589 8.88944 468 ft 119 kts 292°
2026-05-04 15:56 54.15882 8.87600 1032 ft 121 kts 294°
2026-05-04 15:56 54.15805 8.86333 1759 ft 116 kts 221°
2026-05-04 15:56 54.15073 8.86656 2375 ft 137 kts 128°
2026-05-04 15:57 54.14490 8.88094 2650 ft 154 kts 127°
2026-05-04 15:57 54.13851 8.89622 2956 ft 161 kts 128°
2026-05-04 15:57 54.13200 8.91145 3370 ft 159 kts 128°
2026-05-04 15:57 54.12531 8.92692 3652 ft 164 kts 129°
2026-05-04 15:58 54.11697 8.93975 3904 ft 161 kts 165°
2026-05-04 15:58 54.10606 8.94190 4186 ft 158 kts 183°
2026-05-04 15:58 54.09510 8.94280 4457 ft 158 kts 185°
2026-05-04 15:58 54.08445 8.93976 4726 ft 155 kts 197°
2026-05-04 15:59 54.07352 8.93954 4991 ft 162 kts 176°
2026-05-04 15:59 54.06256 8.94408 5262 ft 162 kts 171°
2026-05-04 15:59 54.05165 8.94922 5535 ft 162 kts 171°
2026-05-04 15:59 54.04076 8.95437 5804 ft 162 kts 171°
2026-05-04 16:00 54.02989 8.95947 6071 ft 162 kts 171°
2026-05-04 16:00 54.01988 8.96856 6320 ft 171 kts 139°
2026-05-04 16:00 54.01228 8.98430 6567 ft 172 kts 134°
2026-05-04 16:00 54.00472 9.00015 6816 ft 173 kts 134°
2026-05-04 16:01 53.99711 9.01616 6988 ft 179 kts 134°
2026-05-04 16:01 53.98901 9.03297 6992 ft 187 kts 134°
2026-05-04 16:01 53.98100 9.04955 6992 ft 177 kts 134°
2026-05-04 16:01 53.97339 9.06560 6988 ft 173 kts 134°
2026-05-04 16:02 53.96592 9.08146 6984 ft 171 kts 134°
2026-05-04 16:02 53.95850 9.09718 6983 ft 170 kts 134°
2026-05-04 16:02 53.94368 9.12858 6981 ft 170 kts 134°
2026-05-04 16:03 53.93628 9.14429 6983 ft 170 kts 134°
2026-05-04 16:03 53.92890 9.16000 6988 ft 170 kts 134°
2026-05-04 16:03 53.92152 9.17571 6982 ft 170 kts 134°
2026-05-04 16:03 53.91413 9.19141 6982 ft 170 kts 134°
2026-05-04 16:04 53.90675 9.20710 6985 ft 170 kts 134°
2026-05-04 16:04 53.89198 9.23841 6986 ft 170 kts 134°
2026-05-04 16:04 53.88459 9.25399 6984 ft 169 kts 134°
2026-05-04 16:05 53.87727 9.26929 6982 ft 169 kts 134°
2026-05-04 16:05 53.86977 9.28498 6982 ft 169 kts 134°
2026-05-04 16:05 53.85489 9.31582 6977 ft 167 kts 141°
2026-05-04 16:06 53.84498 9.32279 6987 ft 154 kts 182°
2026-05-04 16:06 53.81622 9.32501 6994 ft 155 kts 184°
2026-05-04 16:07 53.80181 9.32609 6993 ft 155 kts 184°
2026-05-04 16:07 53.76952 9.32841 6996 ft 155 kts 184°
2026-05-04 16:08 53.75873 9.32917 6995 ft 155 kts 184°
2026-05-04 16:08 53.72980 9.35009 6990 ft 172 kts 126°
2026-05-04 16:09 53.71809 9.38547 6994 ft 173 kts 123°
2026-05-04 16:09 53.70628 9.42067 6991 ft 172 kts 123°
2026-05-04 16:10 53.69443 9.45581 6992 ft 172 kts 123°
2026-05-04 16:11 53.67660 9.50856 6992 ft 172 kts 123°
2026-05-04 16:11 53.67064 9.52614 6993 ft 173 kts 123°
2026-05-04 16:12 53.65280 9.57881 6992 ft 172 kts 123°
2026-05-04 16:12 53.63674 9.63328 6994 ft 173 kts 120°
2026-05-04 16:13 53.62598 9.66970 6994 ft 174 kts 120°
2026-05-04 16:13 53.61522 9.70614 6994 ft 173 kts 120°
2026-05-04 16:14 53.60447 9.74250 6994 ft 174 kts 120°
2026-05-04 16:14 53.59370 9.77885 6985 ft 172 kts 120°
2026-05-04 16:15 53.57769 9.83277 6987 ft 172 kts 120°
2026-05-04 16:16 53.56701 9.86866 6990 ft 171 kts 120°
2026-05-04 16:16 53.55100 9.92240 6989 ft 171 kts 120°
2026-05-04 16:17 53.54034 9.95810 6990 ft 171 kts 120°
2026-05-04 16:18 53.52426 10.01184 6963 ft 172 kts 120°
2026-05-04 16:18 53.51890 10.02977 6964 ft 172 kts 120°
2026-05-04 16:19 53.50276 10.08357 6967 ft 172 kts 120°
2026-05-04 16:19 53.49201 10.11932 6967 ft 173 kts 120°
2026-05-04 16:20 53.47577 10.17296 6968 ft 171 kts 121°
2026-05-04 16:20 53.46465 10.20840 6967 ft 172 kts 121°
2026-05-04 16:21 53.44804 10.26157 6968 ft 171 kts 121°
2026-05-04 16:22 53.43698 10.29691 6970 ft 171 kts 121°
2026-05-04 16:22 53.42031 10.34998 6972 ft 172 kts 121°
2026-05-04 16:23 53.40356 10.40311 6970 ft 172 kts 122°
2026-05-04 16:24 53.38111 10.47418 6969 ft 172 kts 121°
2026-05-04 16:25 53.36988 10.50962 6968 ft 172 kts 122°
2026-05-04 16:26 53.34742 10.58041 6962 ft 172 kts 122°
2026-05-04 16:26 53.33248 10.62737 6963 ft 172 kts 122°
2026-05-04 16:27 53.32124 10.66269 6960 ft 172 kts 122°
2026-05-04 16:28 53.30431 10.71572 6962 ft 173 kts 122°
2026-05-04 16:28 53.28741 10.76853 6960 ft 170 kts 122°
2026-05-04 16:29 53.26531 10.83747 6959 ft 167 kts 122°
2026-05-04 16:30 53.24877 10.88896 6957 ft 168 kts 122°
2026-05-04 16:31 53.23776 10.92309 6954 ft 166 kts 122°
2026-05-04 16:31 53.22140 10.97386 6953 ft 165 kts 122°
2026-05-04 16:32 53.20515 11.02414 6949 ft 165 kts 122°
2026-05-04 16:33 53.19425 11.05785 6952 ft 165 kts 122°
2026-05-04 16:33 53.18336 11.09144 6953 ft 164 kts 123°
2026-05-04 16:34 53.17247 11.12498 6953 ft 165 kts 123°
2026-05-04 16:34 53.16701 11.14179 6953 ft 165 kts 123°
2026-05-04 16:35 53.15060 11.19223 6951 ft 165 kts 122°
2026-05-04 16:35 53.13420 11.24253 6951 ft 165 kts 123°
2026-05-04 16:36 53.12874 11.25927 6954 ft 165 kts 123°
2026-05-04 16:36 53.11782 11.29273 6960 ft 164 kts 123°
2026-05-04 16:37 53.10688 11.32611 6961 ft 164 kts 123°
2026-05-04 16:37 53.10143 11.34280 6954 ft 164 kts 123°
2026-05-04 16:37 53.09049 11.37612 6956 ft 164 kts 123°
2026-05-04 16:38 53.07952 11.40955 6952 ft 165 kts 123°
2026-05-04 16:39 53.06306 11.45958 6954 ft 163 kts 123°
2026-05-04 16:39 53.05214 11.49274 6955 ft 164 kts 123°
2026-05-04 16:40 53.04118 11.52598 6957 ft 164 kts 123°
2026-05-04 16:40 53.03196 11.56086 6954 ft 168 kts 108°
2026-05-04 16:41 53.02583 11.59826 6957 ft 168 kts 109°
2026-05-04 16:41 53.01647 11.65410 6960 ft 167 kts 109°
2026-05-04 16:42 53.00707 11.71008 6960 ft 167 kts 109°
2026-05-04 16:43 53.00084 11.74707 6947 ft 168 kts 109°
2026-05-04 16:43 52.99452 11.78448 6949 ft 169 kts 109°
2026-05-04 16:43 52.99135 11.80321 6948 ft 169 kts 109°
2026-05-04 16:44 52.96544 11.86518 6959 ft 164 kts 133°
2026-05-04 16:45 52.95166 11.89532 6961 ft 165 kts 133°
2026-05-04 16:46 52.93066 11.94123 6969 ft 167 kts 133°
2026-05-04 16:46 52.91662 11.97188 6959 ft 166 kts 132°
2026-05-04 16:47 52.90272 12.00221 6961 ft 165 kts 133°
2026-05-04 16:47 52.88880 12.03249 6961 ft 165 kts 133°
2026-05-04 16:48 52.86803 12.07766 6959 ft 164 kts 133°
2026-05-04 16:48 52.86111 12.09270 6959 ft 164 kts 133°
2026-05-04 16:49 52.84731 12.12273 6957 ft 163 kts 133°
2026-05-04 16:49 52.83352 12.15271 6965 ft 164 kts 133°
2026-05-04 16:50 52.81969 12.18270 6958 ft 165 kts 132°
2026-05-04 16:50 52.80586 12.21269 6959 ft 166 kts 133°
2026-05-04 16:51 52.79190 12.24289 6957 ft 165 kts 133°
2026-05-04 16:51 52.78494 12.25797 6957 ft 165 kts 132°
2026-05-04 16:51 52.77106 12.28794 6955 ft 164 kts 132°
2026-05-04 16:52 52.75717 12.31793 6955 ft 164 kts 132°
2026-05-04 16:52 52.75023 12.33291 6955 ft 164 kts 133°
2026-05-04 16:53 52.73632 12.36286 6952 ft 165 kts 133°
2026-05-04 16:53 52.71536 12.40795 6948 ft 165 kts 133°
2026-05-04 16:54 52.70836 12.42284 6957 ft 164 kts 135°
2026-05-04 16:55 52.67729 12.47709 6955 ft 163 kts 139°
2026-05-04 16:55 52.66188 12.50444 6953 ft 163 kts 139°
2026-05-04 16:56 52.64648 12.53173 6948 ft 163 kts 138°
2026-05-04 16:56 52.62305 12.57319 6760 ft 170 kts 138°
2026-05-04 16:57 52.61547 12.58664 6635 ft 156 kts 138°
2026-05-04 16:57 52.60127 12.61185 6377 ft 147 kts 138°
2026-05-04 16:58 52.58044 12.64856 5899 ft 150 kts 138°
2026-05-04 16:58 52.57337 12.66101 5644 ft 147 kts 137°
2026-05-04 16:59 52.55961 12.68530 5132 ft 143 kts 138°
2026-05-04 17:00 52.53254 12.73293 4125 ft 147 kts 135°
2026-05-04 17:00 52.51142 12.77001 3382 ft 149 kts 136°
2026-05-04 17:01 52.49726 12.79486 2884 ft 149 kts 135°
2026-05-04 17:01 52.48304 12.81979 2381 ft 148 kts 133°
2026-05-04 17:02 52.46940 12.84366 2003 ft 138 kts 134°
2026-05-04 17:02 52.45664 12.86601 1992 ft 131 kts 132°
2026-05-04 17:03 52.45036 12.87700 1992 ft 133 kts 132°
2026-05-04 17:03 52.44383 12.88824 2002 ft 139 kts 133°
2026-05-04 17:03 52.43082 12.91120 1997 ft 136 kts 133°
2026-05-04 17:04 52.41798 12.93350 1998 ft 134 kts 133°
2026-05-04 17:04 52.40511 12.95593 2003 ft 137 kts 133°
2026-05-04 17:05 52.39186 12.97886 2006 ft 139 kts 132°
2026-05-04 17:05 52.37847 13.00227 1924 ft 147 kts 134°
2026-05-04 17:06 52.36404 13.02731 1590 ft 151 kts 133°
2026-05-04 17:06 52.35676 13.03993 1418 ft 153 kts 133°
2026-05-04 17:07 52.34249 13.06472 1199 ft 146 kts 133°
2026-05-04 17:07 52.33789 13.07272 1196 ft 145 kts 133°
2026-05-04 17:07 52.32861 13.08885 1189 ft 145 kts 133°
2026-05-04 17:07 52.32171 13.10075 1189 ft 144 kts 133°
2026-05-04 17:08 52.31484 13.11268 1188 ft 144 kts 133°
2026-05-04 17:08 52.30145 13.13576 1187 ft 138 kts 133°
2026-05-04 17:08 52.29486 13.14723 1186 ft 139 kts 132°
2026-05-04 17:09 52.28813 13.15883 1183 ft 141 kts 132°
2026-05-04 17:09 52.28140 13.17043 1183 ft 140 kts 132°
2026-05-04 17:09 52.27486 13.18175 1183 ft 131 kts 132°
2026-05-04 17:10 52.26275 13.20266 1024 ft 122 kts 137°
2026-05-04 17:10 52.24617 13.23142 981 ft 106 kts 135°
2026-05-04 17:11 52.24089 13.24055 961 ft 114 kts 137°
2026-05-04 17:11 52.23520 13.24913 1025 ft 113 kts 140°
2026-05-04 17:11 52.22192 13.24974 1066 ft 105 kts 235°
2026-05-04 17:12 52.21971 13.23829 1002 ft 109 kts 256°
2026-05-04 17:12 52.21229 13.21666 868 ft 106 kts 254°
2026-05-04 17:13 52.20752 13.18367 415 ft 94 kts 257°
2026-05-04 17:14 52.20349 13.15743 134 ft 37 kts 255°
2026-05-04 17:14 52.20311 13.15477 135 ft 10 kts 286°
2026-05-04 17:14 52.20370 13.15323 138 ft 10 kts 315°
2026-05-04 17:15 52.20428 13.15285 137 ft 10 kts 346°
2026-05-04 17:15 52.20426 13.15206 137 ft 0 kts 167°